This is the latest recevied weather packets stored in our database for station/object KD4EED. If no packets are shown the sender has not sent any weather packets the latest 10 day(s).
| Time | Temp. | Humidity | Pressure | Rain* | Wind** | Luminosity | Snow |
|---|---|---|---|---|---|---|---|
| 1788221321 | 28.33° C | 55% | 1010.3 hPa | - | - | 210 W/m² | - |
| 1788221016 | 28.33° C | 55% | 1010.4 hPa | - | - | 219 W/m² | - |
| 1788220714 | 28.89° C | 54% | 1010.3 hPa | - | - | 235 W/m² | - |
| 1788220410 | 27.78° C | 55% | 1010.4 hPa | - | - | 248 W/m² | - |
| 1788220105 | 27.78° C | 55% | 1010.3 hPa | - | - | 264 W/m² | - |
| 1788219805 | 28.33° C | 55% | 1010.3 hPa | - | - | 283 W/m² | - |
| 1788219500 | 28.33° C | 53% | 1010.1 hPa | - | - | 299 W/m² | - |
| 1788219196 | 28.89° C | 50% | 1010.2 hPa | - | - | 311 W/m² | - |
| 1788218891 | 28.89° C | 53% | 1010.2 hPa | - | - | 331 W/m² | - |
| 1788218587 | 29.44° C | 50% | 1010 hPa | - | - | 345 W/m² | - |
| 1788218283 | 28.89° C | 49% | 1010.1 hPa | - | - | 364 W/m² | - |
| 1788217980 | 28.89° C | 50% | 1010.1 hPa | - | - | 374 W/m² | - |
| 1788217680 | 28.89° C | 53% | 1010.1 hPa | - | - | 388 W/m² | - |
| 1788217375 | 28.89° C | 52% | 1010.3 hPa | - | - | 397 W/m² | - |
| 1788217074 | 29.44° C | 49% | 1010.2 hPa | - | - | 404 W/m² | - |
| 1788216769 | 29.44° C | 50% | 1010.2 hPa | - | - | 406 W/m² | - |
| 1788216464 | 29.44° C | 51% | 1010.3 hPa | - | - | 412 W/m² | - |
| 1788216160 | 29.44° C | 49% | 1010.4 hPa | - | - | 423 W/m² | - |
| 1788215855 | 30° C | 48% | 1010.4 hPa | - | - | 427 W/m² | - |
| 1788215551 | 29.44° C | 51% | 1010.3 hPa | - | - | 441 W/m² | - |
| 1788215247 | 29.44° C | 48% | 1010.3 hPa | - | - | 451 W/m² | - |
| 1788214942 | 29.44° C | 50% | 1010.6 hPa | - | - | 463 W/m² | - |
| 1788214638 | 30° C | 49% | 1010.6 hPa | - | - | 477 W/m² | - |
| 1788214333 | 30° C | 50% | 1010.7 hPa | - | - | 492 W/m² | - |
| 1788214028 | 30° C | 48% | 1010.8 hPa | - | - | 506 W/m² | - |
* Rain since midnight (hover to see other rain measurements)
** Current wind speed in m/s (hover to see current wind gust speed)